Weather reports worldwide

Advertisment
Vigna Di Valle, Italy (16224): temperature & dewpoint: 16.09.2018 23:00:00 - 22.09.2018 23:00:00 (CEST)Vigna Di Valle, Italy (16224): wind speed: 16.09.2018 23:00:00 - 22.09.2018 23:00:00 (CEST)Vigna Di Valle, Italy (16224): wind direction: 16.09.2018 23:00:00 - 22.09.2018 23:00:00 (CEST)Vigna Di Valle, Italy (16224): reduced air pressure: 16.09.2018 23:00:00 - 22.09.2018 23:00:00 (CEST)Vigna Di Valle, Italy (16224): visibility: 16.09.2018 23:00:00 - 22.09.2018 23:00:00 (CEST)Vigna Di Valle, Italy (16224): sunshine duration: 16.09.2018 23:00:00 - 22.09.2018 23:00:00 (CEST)
Date & Time tt [°C] td [°C] ff [km/h] ff [kn] dd ppp [hPa] vv [km] sd [min]
22.09.2018 23:00:00 20,1 17,1 5 3 W 1019,7 27 0
22.09.2018 22:00:00 20,2 16,4 5 3 W 1019,4 34 0
22.09.2018 21:00:00 20,8 17,4 8 4 SW 1018,8 28 0
22.09.2018 20:00:00 21,7 16,5 9 5 SSW 1018,1 10 0
22.09.2018 19:00:00 23,4 16,5 13 7 SSW 1017,5 10 18
22.09.2018 18:00:00 25,1 17,3 16 9 SSW 1016,8 10 60
22.09.2018 17:00:00 27,2 16,7 13 7 SSW 1016,9 10 60
22.09.2018 16:00:00 28,1 15,2 11 6 SW 1017,0 12 60
22.09.2018 15:00:00 28,9 15,6 15 8 SSW 1016,9 10 60
22.09.2018 14:00:00 28,5 15,8 9 5 SSW 1017,1 10 -
22.09.2018 13:00:00 28,3 16,2 8 4 SW 1012,9 10 60
22.09.2018 12:00:00 27,8 15,8 5 3 W 1017,4 10 55
22.09.2018 11:00:00 26,4 16,0 4 2 N 1017,7 10 60
22.09.2018 10:00:00 24,0 16,8 4 2 N 1017,6 10 60
22.09.2018 09:00:00 21,7 19,3 8 4 SSW 1017,1 8 60
22.09.2018 08:00:00 20,5 19,3 9 5 SSW 1017,1 8 24
22.09.2018 07:00:00 19,3 18,4 15 8 S 1017,0 - 0
22.09.2018 06:00:00 - - - - - - - -
22.09.2018 05:00:00 20,1 18,8 11 6 SSW 1016,8 - 0
22.09.2018 04:00:00 20,1 18,4 15 8 SSW 1017,0 - 0
22.09.2018 03:00:00 20,4 18,4 13 7 SSW 1017,0 - 0
22.09.2018 02:00:00 20,2 16,9 8 4 S 1017,1 - 0
22.09.2018 01:00:00 20,3 17,1 11 6 S 1017,3 - 0
22.09.2018 00:00:00 21,0 17,2 13 7 S 1017,3 - 0
21.09.2018 23:00:00 21,0 17,0 13 7 S 1016,9 - 0
21.09.2018 22:00:00 21,2 16,8 4 2 N 1016,5 - 0
21.09.2018 21:00:00 21,7 17,3 8 4 N 1016,3 - 0
21.09.2018 20:00:00 22,4 17,5 8 4 N 1015,7 10 0
21.09.2018 19:00:00 23,5 17,7 8 4 NE 1015,8 12 41
21.09.2018 18:00:00 25,0 17,8 11 6 NE 1015,3 14 60
21.09.2018 17:00:00 26,3 17,6 9 5 NNE 1015,1 15 59
21.09.2018 16:00:00 27,1 17,1 5 3 NE 1015,2 14 41
21.09.2018 15:00:00 26,8 17,5 9 5 NE 1015,4 15 47
21.09.2018 14:00:00 26,8 16,7 9 5 NNE 1015,8 15 48
21.09.2018 13:00:00 26,9 16,9 9 5 NNE 1015,9 15 56
21.09.2018 12:00:00 27,4 16,9 9 5 NNW 1015,7 15 60
21.09.2018 11:00:00 24,5 17,7 4 2 N 1015,9 14 60
21.09.2018 10:00:00 22,8 18,0 5 3 NNW 1015,5 13 60
21.09.2018 09:00:00 21,9 17,9 4 2 NNE 1015,2 12 60
21.09.2018 08:00:00 20,2 18,3 5 3 N 1015,2 10 20
21.09.2018 07:00:00 19,8 17,8 4 2 N 1015,4 - 0
21.09.2018 06:00:00 19,9 17,2 4 2 N 1015,6 - 0
21.09.2018 05:00:00 20,1 17,2 11 6 E 1015,7 - 0
21.09.2018 04:00:00 19,8 17,7 5 3 N 1016,0 - 0
21.09.2018 03:00:00 20,0 17,3 5 3 N 1016,5 - 0
21.09.2018 02:00:00 19,7 16,9 4 2 N 1016,4 - 0
21.09.2018 01:00:00 19,6 16,8 4 2 N 1016,6 - 0
21.09.2018 00:00:00 20,0 16,9 4 2 N 1017,0 - 0
20.09.2018 23:00:00 21,1 17,2 9 5 S 1016,8 - 0
20.09.2018 22:00:00 21,7 19,9 5 3 S 1016,7 - 0
20.09.2018 21:00:00 - - - - - - - -
20.09.2018 20:00:00 22,3 19,1 5 3 NNE 1016,0 10 0
20.09.2018 19:00:00 22,5 19,5 5 3 N 1016,2 10 0
20.09.2018 18:00:00 23,9 18,9 8 4 N 1016,2 10 0
20.09.2018 17:00:00 25,6 16,2 5 3 NNE 1015,8 10 0
20.09.2018 16:00:00 25,7 17,1 5 3 N 1016,0 10 0
20.09.2018 15:00:00 25,2 17,0 5 3 NNE 1016,7 10 0
20.09.2018 14:00:00 24,6 17,5 8 4 N 1017,1 10 0
20.09.2018 13:00:00 24,0 18,2 8 4 NE 1017,5 10 0
20.09.2018 12:00:00 23,4 18,4 8 4 NE 1017,8 10 0
20.09.2018 11:00:00 21,9 18,2 8 4 NNE 1017,9 10 0
20.09.2018 10:00:00 20,8 18,0 4 2 N 1018,0 10 0
20.09.2018 09:00:00 20,2 17,9 9 5 NE 1017,5 10 0
20.09.2018 08:00:00 20,2 17,8 9 5 NNE 1017,2 10 0
20.09.2018 07:00:00 20,0 17,7 5 3 NE 1017,4 - 0
20.09.2018 06:00:00 19,9 18,2 5 3 NNE 1017,4 - 0
20.09.2018 05:00:00 19,8 18,2 5 3 NE 1017,3 - 0
20.09.2018 04:00:00 20,0 18,4 5 3 NNE 1017,5 - 0
20.09.2018 03:00:00 20,2 17,6 5 3 NE 1017,7 - 0
20.09.2018 02:00:00 20,2 17,9 4 2 N 1018,2 - 0
20.09.2018 01:00:00 20,1 18,1 8 4 NE 1018,6 - 0
20.09.2018 00:00:00 20,5 18,1 8 4 N 1018,9 - 0
19.09.2018 23:00:00 21,0 18,4 8 4 NNE 1018,2 - 0
19.09.2018 22:00:00 21,3 18,9 5 3 N 1018,3 - 0
19.09.2018 21:00:00 21,5 17,8 9 5 NW 1018,4 - 0
19.09.2018 20:00:00 21,5 18,6 5 3 N 1018,2 6 0
19.09.2018 19:00:00 23,1 18,4 4 2 N 1018,0 8 0
19.09.2018 18:00:00 23,7 18,3 8 4 S 1017,7 8 0
19.09.2018 17:00:00 23,9 18,5 8 4 SSW 1017,7 8 0
19.09.2018 16:00:00 23,9 18,9 13 7 S 1017,9 8 0
19.09.2018 15:00:00 23,3 19,2 4 2 N 1018,1 7 0
19.09.2018 14:00:00 23,8 19,1 9 5 N 1018,5 8 0
19.09.2018 13:00:00 24,4 18,9 5 3 NNE 1018,4 8 34
19.09.2018 12:00:00 24,3 19,7 5 3 NE 1019,0 8 15
19.09.2018 11:00:00 22,3 19,7 5 3 NE 1019,5 6 0
19.09.2018 10:00:00 21,6 19,7 9 5 N 1019,1 7 0
19.09.2018 09:00:00 20,8 19,2 8 4 NNE 1019,0 6 0
19.09.2018 08:00:00 20,7 19,2 4 2 N 1018,8 7 0
19.09.2018 07:00:00 20,2 17,9 4 2 N 1018,9 - 0
19.09.2018 06:00:00 20,0 18,4 5 3 NNE 1019,2 - 0
19.09.2018 05:00:00 20,2 18,7 5 3 NE 1019,0 - 0
19.09.2018 04:00:00 20,3 19,0 4 2 N 1019,3 - 0
19.09.2018 03:00:00 20,7 19,6 4 2 NW 1019,3 - 0
19.09.2018 02:00:00 20,3 19,0 8 4 S 1019,2 - 0
19.09.2018 01:00:00 21,3 20,3 8 4 S 1019,5 - 0
19.09.2018 00:00:00 21,5 20,1 2 1 - 1019,5 - 0
18.09.2018 23:00:00 21,3 20,0 4 2 E 1020,0 - 0
18.09.2018 22:00:00 21,4 19,6 2 1 SSE 1019,7 - 0
18.09.2018 21:00:00 21,7 19,4 5 3 S 1019,6 - 0
18.09.2018 20:00:00 22,3 19,6 8 4 SSW 1019,1 11 0
18.09.2018 19:00:00 23,2 18,9 8 4 SW 1018,7 14 29
18.09.2018 18:00:00 24,9 17,9 15 8 SSW 1018,1 15 60
18.09.2018 17:00:00 26,1 17,4 16 9 SSW 1018,3 15 60
18.09.2018 16:00:00 27,0 17,2 13 7 SSW 1018,3 15 57
18.09.2018 15:00:00 27,4 17,5 15 8 SSW 1018,4 13 28
18.09.2018 14:00:00 26,9 18,2 11 6 SSW 1019,1 15 36
18.09.2018 13:00:00 26,6 18,2 8 4 NNW 1019,7 14 34
18.09.2018 12:00:00 26,2 19,2 8 4 NE 1020,2 13 54
18.09.2018 11:00:00 24,0 19,0 8 4 N 1020,3 12 34
18.09.2018 10:00:00 23,1 18,8 4 2 N 1020,3 11 51
18.09.2018 09:00:00 22,1 19,0 8 4 N 1020,0 10 50
18.09.2018 08:00:00 21,0 18,4 5 3 NNE 1020,3 10 6
18.09.2018 07:00:00 20,2 18,1 5 3 NE 1020,1 - 0
18.09.2018 06:00:00 19,9 17,7 4 2 NE 1020,1 - 0
18.09.2018 05:00:00 19,7 17,0 5 3 NNE 1019,8 - 0
18.09.2018 04:00:00 19,4 15,7 5 3 NNW 1019,6 - 0
18.09.2018 03:00:00 19,7 16,6 5 3 N 1019,6 - 0
18.09.2018 02:00:00 19,8 16,4 4 2 N 1019,9 - 0
18.09.2018 01:00:00 19,4 16,3 4 2 N 1020,1 - 0
18.09.2018 00:00:00 19,6 14,8 5 3 WSW 1020,1 - 0
17.09.2018 23:00:00 19,9 17,3 5 3 SSW 1020,5 - 0
17.09.2018 22:00:00 20,6 16,2 4 2 N 1020,6 - 0
17.09.2018 21:00:00 21,8 19,9 9 5 SW 1020,5 - 0
17.09.2018 20:00:00 22,6 19,1 8 4 SSW 1020,2 11 0
17.09.2018 19:00:00 23,2 18,3 5 3 SW 1019,7 14 35
17.09.2018 18:00:00 24,9 18,3 9 5 SW 1018,9 14 60
17.09.2018 17:00:00 26,1 18,1 15 8 SSW 1019,4 14 60
17.09.2018 16:00:00 26,4 17,7 18 10 SSW 1019,7 14 60
17.09.2018 15:00:00 27,4 16,7 13 7 SSW 1019,8 14 60
17.09.2018 14:00:00 27,4 16,8 9 5 SSW 1020,6 14 50
17.09.2018 13:00:00 26,5 18,1 4 2 W 1021,2 13 42
17.09.2018 12:00:00 26,5 18,0 4 2 WSW 1021,4 11 59
17.09.2018 11:00:00 25,2 18,5 5 3 SW 1021,6 11 60
17.09.2018 10:00:00 23,6 18,5 5 3 SW 1021,5 10 60
17.09.2018 09:00:00 21,6 19,9 4 2 WSW 1021,4 9 19
17.09.2018 08:00:00 19,7 18,8 8 4 SSW 1021,4 8 6
17.09.2018 07:00:00 19,2 18,4 11 6 SW 1021,1 - 0
17.09.2018 06:00:00 19,2 18,4 15 8 SSW 1021,4 - 0
17.09.2018 05:00:00 19,7 18,7 13 7 SSW 1021,5 - 0
17.09.2018 04:00:00 19,3 18,1 13 7 S 1021,9 - 0
17.09.2018 03:00:00 19,8 18,4 13 7 SSW 1021,8 - 0
17.09.2018 02:00:00 19,7 18,2 13 7 S 1022,1 - 0
17.09.2018 01:00:00 19,4 17,9 15 8 S 1022,1 - 0
17.09.2018 00:00:00 19,9 18,3 13 7 S 1022,2 - 0
16.09.2018 23:00:00 20,1 18,4 5 3 S 1022,2 - 0

tt = temperature
td = dewpoint
ff = wind speed
dd = wind direction
ppp = reduced air pressure
vv = visibility
sd = sunshine duration

Next stations